Time,TemperatureF,DewpointF,PressureIn,WindDirection,WindDirectionDegrees,WindSpeedMPH,WindSpeedGustMPH,Humidity,HourlyPrecipIn,Conditions,Clouds,dailyrainin,SolarRadiationWatts/m^2,SoftwareType,DateUTC
2013-11-03 00:08:00,36.3,35.0,30.19,NNE,19,0.0,0.0,96,0.00,,,0.00,0,weatherlink.com 1.10,2013-11-03 05:08:00,
2013-11-03 00:23:00,35.9,35.0,30.19,NNE,19,0.0,0.0,97,0.00,,,0.00,0,weatherlink.com 1.10,2013-11-03 05:23:00,
2013-11-03 00:38:00,35.4,35.0,30.20,NNE,19,0.0,0.0,97,0.00,,,0.00,0,weatherlink.com 1.10,2013-11-03 05:38:00,
2013-11-03 00:53:00,35.2,35.0,30.20,NNE,19,0.0,0.0,97,0.00,,,0.00,0,weatherlink.com 1.10,2013-11-03 05:53:00,
2013-11-03 01:08:00,35.2,35.0,30.21,NNE,19,0.0,0.0,97,0.00,,,0.00,0,weatherlink.com 1.10,2013-11-03 06:08:00,
2013-11-03 01:23:00,35.2,35.0,30.21,NNE,19,0.0,0.0,98,0.00,,,0.00,0,weatherlink.com 1.10,2013-11-03 06:23:00,
2013-11-03 01:38:00,35.0,34.0,30.22,NNE,19,0.0,0.0,97,0.00,,,0.00,0,weatherlink.com 1.10,2013-11-03 06:38:00,
2013-11-03 01:53:00,35.3,35.0,30.23,NNE,19,0.0,0.0,98,0.00,,,0.00,0,weatherlink.com 1.10,2013-11-03 06:53:00,
2013-11-03 01:08:00,35.0,34.0,30.23,NNE,19,0.0,0.0,97,0.00,,,0.00,0,weatherlink.com 1.10,2013-11-03 07:08:00,
2013-11-03 01:23:00,34.7,34.0,30.23,NNE,19,0.0,0.0,97,0.00,,,0.00,0,weatherlink.com 1.10,2013-11-03 07:23:00,
2013-11-03 01:38:00,34.3,34.0,30.24,NNE,19,0.0,0.0,97,0.00,,,0.00,0,weatherlink.com 1.10,2013-11-03 07:38:00,
2013-11-03 01:53:00,33.5,33.0,30.25,NNE,19,0.0,0.0,97,0.00,,,0.00,0,weatherlink.com 1.10,2013-11-03 07:53:00,
2013-11-03 02:08:00,33.3,33.0,30.25,NNE,19,0.0,0.0,97,0.00,,,0.00,0,weatherlink.com 1.10,2013-11-03 08:08:00,
2013-11-03 02:23:00,32.9,32.0,30.25,NNE,19,0.0,0.0,97,0.00,,,0.00,0,weatherlink.com 1.10,2013-11-03 08:23:00,
2013-11-03 02:38:00,32.2,32.0,30.25,NNE,19,0.0,0.0,97,0.00,,,0.00,0,weatherlink.com 1.10,2013-11-03 08:38:00,
2013-11-03 02:53:00,32.4,32.0,30.25,NNE,19,0.0,0.0,98,0.00,,,0.00,0,weatherlink.com 1.10,2013-11-03 08:53:00,
2013-11-03 03:09:00,32.5,32.0,30.25,NNE,19,0.0,0.0,98,0.00,,,0.00,0,weatherlink.com 1.10,2013-11-03 09:09:00,
2013-11-03 03:24:00,32.3,32.0,30.25,NNE,19,0.0,0.0,98,0.00,,,0.00,0,weatherlink.com 1.10,2013-11-03 09:24:00,
2013-11-03 03:39:00,31.6,31.0,30.26,NNE,19,0.0,0.0,97,0.00,,,0.00,0,weatherlink.com 1.10,2013-11-03 09:39:00,
2013-11-03 03:54:00,31.6,31.0,30.27,NNE,19,0.0,0.0,98,0.00,,,0.00,0,weatherlink.com 1.10,2013-11-03 09:54:00,
2013-11-03 04:09:00,31.4,31.0,30.27,NNE,19,0.0,0.0,98,0.00,,,0.00,0,weatherlink.com 1.10,2013-11-03 10:09:00,
2013-11-03 04:24:00,31.9,31.0,30.27,NNE,19,0.0,0.0,98,0.00,,,0.00,0,weatherlink.com 1.10,2013-11-03 10:24:00,
2013-11-03 04:39:00,31.6,31.0,30.27,NNE,19,0.0,0.0,98,0.00,,,0.00,0,weatherlink.com 1.10,2013-11-03 10:39:00,
2013-11-03 04:54:00,31.4,31.0,30.28,NNE,19,0.0,0.0,98,0.00,,,0.00,0,weatherlink.com 1.10,2013-11-03 10:54:00,
2013-11-03 05:09:00,31.1,31.0,30.28,NNE,19,0.0,0.0,98,0.00,,,0.00,0,weatherlink.com 1.10,2013-11-03 11:09:00,
2013-11-03 05:24:00,30.7,30.0,30.28,NNE,19,0.0,0.0,98,0.00,,,0.00,0,weatherlink.com 1.10,2013-11-03 11:24:00,
2013-11-03 05:39:00,30.3,30.0,30.29,NNE,19,0.0,1.0,98,0.00,,,0.00,0,weatherlink.com 1.10,2013-11-03 11:39:00,
2013-11-03 05:54:00,30.4,30.0,30.30,NNE,24,0.0,1.0,98,0.00,,,0.00,0,weatherlink.com 1.10,2013-11-03 11:54:00,
2013-11-03 06:09:00,30.5,30.0,30.30,NNE,24,0.0,0.0,98,0.00,,,0.00,0,weatherlink.com 1.10,2013-11-03 12:09:00,
2013-11-03 06:24:00,30.4,30.0,30.31,NNE,24,0.0,0.0,98,0.00,,,0.00,0,weatherlink.com 1.10,2013-11-03 12:24:00,
2013-11-03 06:39:00,30.1,30.0,30.31,NNE,24,0.0,0.0,98,0.00,,,0.00,5,weatherlink.com 1.10,2013-11-03 12:39:00,
2013-11-03 06:54:00,29.7,29.0,30.32,NNE,24,0.0,0.0,98,0.00,,,0.00,16,weatherlink.com 1.10,2013-11-03 12:54:00,
2013-11-03 07:09:00,29.6,29.0,30.32,NNE,24,0.0,0.0,98,0.00,,,0.00,25,weatherlink.com 1.10,2013-11-03 13:09:00,
2013-11-03 07:24:00,29.8,29.0,30.33,NNE,24,0.0,0.0,98,0.00,,,0.00,30,weatherlink.com 1.10,2013-11-03 13:24:00,
2013-11-03 07:39:00,29.8,29.0,30.33,NNE,24,0.0,0.0,98,0.00,,,0.00,33,weatherlink.com 1.10,2013-11-03 13:39:00,
2013-11-03 07:54:00,30.2,30.0,30.33,NNE,24,0.0,0.0,98,0.00,,,0.00,23,weatherlink.com 1.10,2013-11-03 13:54:00,
2013-11-03 08:09:00,30.9,30.0,30.33,NNE,24,0.0,0.0,98,0.00,,,0.00,23,weatherlink.com 1.10,2013-11-03 14:09:00,
2013-11-03 08:24:00,32.0,32.0,30.33,NNE,24,0.0,0.0,98,0.00,,,0.00,28,weatherlink.com 1.10,2013-11-03 14:24:00,
2013-11-03 08:39:00,34.6,34.0,30.33,NNE,24,0.0,1.0,99,0.00,,,0.00,26,weatherlink.com 1.10,2013-11-03 14:39:00,
2013-11-03 08:54:00,36.1,36.0,30.34,NNE,24,0.0,0.0,99,0.00,,,0.00,26,weatherlink.com 1.10,2013-11-03 14:54:00,
2013-11-03 09:09:00,37.9,38.0,30.33,NNE,24,1.0,1.0,99,0.00,,,0.00,26,weatherlink.com 1.10,2013-11-03 15:09:00,
2013-11-03 09:24:00,39.3,39.0,30.34,NNE,27,0.0,1.0,99,0.01,,,0.01,39,weatherlink.com 1.10,2013-11-03 15:24:00,
2013-11-03 09:39:00,40.6,40.0,30.34,NNE,31,0.0,2.0,99,0.02,,,0.02,102,weatherlink.com 1.10,2013-11-03 15:39:00,
2013-11-03 09:54:00,41.8,42.0,30.34,NE,40,1.0,2.0,99,0.05,,,0.05,120,weatherlink.com 1.10,2013-11-03 15:54:00,
2013-11-03 10:09:00,42.8,42.0,30.34,NE,41,0.0,2.0,95,0.08,,,0.08,44,weatherlink.com 1.10,2013-11-03 16:09:00,
2013-11-03 10:25:00,43.8,41.0,30.34,NE,42,2.0,3.0,89,0.10,,,0.11,118,weatherlink.com 1.10,2013-11-03 16:25:00,
2013-11-03 10:40:00,44.5,41.0,30.34,NE,42,1.0,3.0,87,0.12,,,0.14,53,weatherlink.com 1.10,2013-11-03 16:40:00,
2013-11-03 10:55:00,44.9,39.0,30.34,NE,42,2.0,4.0,81,0.11,,,0.16,51,weatherlink.com 1.10,2013-11-03 16:55:00,
2013-11-03 11:10:00,45.5,39.0,30.33,NE,47,1.0,3.0,79,0.11,,,0.19,83,weatherlink.com 1.10,2013-11-03 17:10:00,
2013-11-03 11:25:00,45.8,40.0,30.33,NE,48,2.0,3.0,80,0.11,,,0.22,90,weatherlink.com 1.10,2013-11-03 17:25:00,
2013-11-03 11:40:00,46.0,39.0,30.32,NE,49,0.0,4.0,77,0.10,,,0.24,83,weatherlink.com 1.10,2013-11-03 17:40:00,
2013-11-03 11:55:00,46.8,40.0,30.31,NE,53,2.0,4.0,78,0.10,,,0.26,100,weatherlink.com 1.10,2013-11-03 17:55:00,
2013-11-03 12:10:00,46.3,40.0,30.31,NE,54,0.0,4.0,78,0.09,,,0.28,120,weatherlink.com 1.10,2013-11-03 18:10:00,
2013-11-03 12:25:00,46.9,40.0,30.30,NE,55,0.0,4.0,76,0.08,,,0.30,77,weatherlink.com 1.10,2013-11-03 18:25:00,
2013-11-03 12:40:00,46.3,39.0,30.30,NE,56,2.0,4.0,76,0.08,,,0.32,225,weatherlink.com 1.10,2013-11-03 18:40:00,
2013-11-03 12:55:00,46.9,39.0,30.29,NE,56,0.0,4.0,75,0.08,,,0.34,160,weatherlink.com 1.10,2013-11-03 18:55:00,
2013-11-03 13:10:00,47.6,39.0,30.28,ENE,57,0.0,4.0,72,0.08,,,0.36,134,weatherlink.com 1.10,2013-11-03 19:10:00,
2013-11-03 13:25:00,47.8,39.0,30.28,ENE,57,2.0,3.0,71,0.08,,,0.38,510,weatherlink.com 1.10,2013-11-03 19:25:00,
2013-11-03 13:40:00,47.9,38.0,30.28,ENE,57,2.0,5.0,69,0.07,,,0.39,476,weatherlink.com 1.10,2013-11-03 19:40:00,
2013-11-03 13:55:00,48.2,38.0,30.27,ENE,61,0.0,3.0,68,0.07,,,0.41,63,weatherlink.com 1.10,2013-11-03 19:55:00,
2013-11-03 14:10:00,47.9,38.0,30.27,ENE,63,2.0,4.0,68,0.07,,,0.43,69,weatherlink.com 1.10,2013-11-03 20:10:00,
2013-11-03 14:25:00,47.7,38.0,30.27,ENE,63,2.0,3.0,69,0.06,,,0.44,39,weatherlink.com 1.10,2013-11-03 20:25:00,
2013-11-03 14:40:00,47.7,37.0,30.27,ENE,65,3.0,5.0,67,0.07,,,0.46,83,weatherlink.com 1.10,2013-11-03 20:40:00,
2013-11-03 14:55:00,47.6,38.0,30.27,ENE,65,0.0,2.0,70,0.06,,,0.47,53,weatherlink.com 1.10,2013-11-03 20:55:00,
2013-11-03 15:10:00,47.5,37.0,30.27,ENE,66,0.0,3.0,68,0.05,,,0.48,53,weatherlink.com 1.10,2013-11-03 21:10:00,
2013-11-03 15:25:00,47.2,37.0,30.26,East,80,0.0,3.0,69,0.06,,,0.50,79,weatherlink.com 1.10,2013-11-03 21:25:00,
2013-11-03 15:40:00,47.3,38.0,30.26,East,80,0.0,3.0,69,0.05,,,0.51,44,weatherlink.com 1.10,2013-11-03 21:40:00,
2013-11-03 15:55:00,46.8,37.0,30.25,East,80,0.0,2.0,69,0.05,,,0.52,33,weatherlink.com 1.10,2013-11-03 21:55:00,
2013-11-03 16:10:00,46.1,38.0,30.25,East,80,0.0,1.0,72,0.05,,,0.53,25,weatherlink.com 1.10,2013-11-03 22:10:00,
2013-11-03 16:25:00,45.5,37.0,30.25,East,80,0.0,1.0,72,0.04,,,0.54,14,weatherlink.com 1.10,2013-11-03 22:25:00,
2013-11-03 16:40:00,44.7,37.0,30.25,East,80,0.0,1.0,74,0.04,,,0.55,0,weatherlink.com 1.10,2013-11-03 22:40:00,
2013-11-03 16:55:00,44.0,37.0,30.25,East,80,0.0,1.0,75,0.04,,,0.56,0,weatherlink.com 1.10,2013-11-03 22:55:00,
2013-11-03 17:10:00,43.4,36.0,30.25,East,80,0.0,1.0,76,0.04,,,0.57,0,weatherlink.com 1.10,2013-11-03 23:10:00,
2013-11-03 17:25:00,43.2,37.0,30.25,East,80,0.0,2.0,78,0.03,,,0.57,0,weatherlink.com 1.10,2013-11-03 23:25:00,
2013-11-03 17:40:00,42.7,37.0,30.25,East,80,1.0,2.0,81,0.03,,,0.58,0,weatherlink.com 1.10,2013-11-03 23:40:00,
2013-11-03 17:55:00,42.4,37.0,30.25,East,80,1.0,2.0,82,0.03,,,0.59,0,weatherlink.com 1.10,2013-11-03 23:55:00,
2013-11-03 18:10:00,42.3,37.0,30.25,East,80,1.0,3.0,82,0.02,,,0.59,0,weatherlink.com 1.10,2013-11-04 00:10:00,
2013-11-03 18:25:00,42.2,37.0,30.25,East,80,1.0,2.0,82,0.03,,,0.60,0,weatherlink.com 1.10,2013-11-04 00:25:00,
2013-11-03 18:40:00,41.8,37.0,30.26,East,80,1.0,3.0,83,0.03,,,0.61,0,weatherlink.com 1.10,2013-11-04 00:40:00,
2013-11-03 18:55:00,41.6,37.0,30.26,East,80,1.0,3.0,84,0.02,,,0.61,0,weatherlink.com 1.10,2013-11-04 00:55:00,
2013-11-03 19:10:00,41.4,37.0,30.26,East,80,2.0,2.0,85,0.03,,,0.62,0,weatherlink.com 1.10,2013-11-04 01:10:00,
2013-11-03 19:25:00,41.5,37.0,30.26,East,80,1.0,3.0,85,0.02,,,0.62,0,weatherlink.com 1.10,2013-11-04 01:25:00,
2013-11-03 19:40:00,41.5,37.0,30.26,East,80,1.0,4.0,85,0.02,,,0.63,0,weatherlink.com 1.10,2013-11-04 01:40:00,
2013-11-03 19:55:00,41.4,38.0,30.27,East,80,2.0,3.0,86,0.03,,,0.64,0,weatherlink.com 1.10,2013-11-04 01:55:00,
2013-11-03 20:10:00,41.3,38.0,30.27,East,80,0.0,3.0,87,0.02,,,0.64,0,weatherlink.com 1.10,2013-11-04 02:10:00,
2013-11-03 20:25:00,41.3,38.0,30.27,East,80,0.0,2.0,87,0.03,,,0.65,0,weatherlink.com 1.10,2013-11-04 02:25:00,
2013-11-03 20:40:00,41.3,38.0,30.27,East,80,0.0,2.0,88,0.02,,,0.65,0,weatherlink.com 1.10,2013-11-04 02:40:00,
2013-11-03 20:55:00,41.6,38.0,30.27,East,80,0.0,3.0,87,0.02,,,0.66,0,weatherlink.com 1.10,2013-11-04 02:55:00,
2013-11-03 21:10:00,41.5,38.0,30.27,East,80,0.0,3.0,88,0.02,,,0.66,0,weatherlink.com 1.10,2013-11-04 03:10:00,
2013-11-03 21:25:00,41.4,38.0,30.27,East,80,0.0,3.0,88,0.01,,,0.66,0,weatherlink.com 1.10,2013-11-04 03:25:00,
2013-11-03 21:40:00,41.3,38.0,30.28,East,80,0.0,2.0,88,0.02,,,0.67,0,weatherlink.com 1.10,2013-11-04 03:40:00,
2013-11-03 21:55:00,41.3,38.0,30.27,East,80,1.0,2.0,89,0.01,,,0.67,0,weatherlink.com 1.10,2013-11-04 03:55:00,
2013-11-03 22:10:00,41.6,39.0,30.26,East,80,2.0,2.0,89,0.02,,,0.68,0,weatherlink.com 1.10,2013-11-04 04:10:00,
2013-11-03 22:25:00,41.9,39.0,30.26,East,80,0.0,3.0,89,0.02,,,0.68,0,weatherlink.com 1.10,2013-11-04 04:25:00,
2013-11-03 22:40:00,42.3,39.0,30.25,East,80,1.0,4.0,89,0.01,,,0.68,0,weatherlink.com 1.10,2013-11-04 04:40:00,
2013-11-03 22:55:00,42.7,39.0,30.26,East,80,1.0,5.0,88,0.02,,,0.69,0,weatherlink.com 1.10,2013-11-04 04:55:00,
2013-11-03 23:10:00,43.0,40.0,30.26,East,80,2.0,7.0,88,0.01,,,0.69,0,weatherlink.com 1.10,2013-11-04 05:10:00,
2013-11-03 23:25:00,43.3,40.0,30.25,East,81,1.0,4.0,88,0.01,,,0.69,0,weatherlink.com 1.10,2013-11-04 05:25:00,
2013-11-03 23:40:00,43.4,40.0,30.26,East,81,1.0,5.0,87,0.02,,,0.70,0,weatherlink.com 1.10,2013-11-04 05:40:00,
2013-11-03 23:55:00,43.6,40.0,30.27,East,81,1.0,5.0,87,0.01,,,0.70,0,weatherlink.com 1.10,2013-11-04 05:55:00,